Location: Taukkyan
(23.1052°N, 94.0030°E)
Time: 11:16:17
(UTC+00:00)

SPOT 3 Rocket - Pass Details

Date: 06 July 2020
Orbit: 778 x 795 km, 98.8° (Epoch: 15 August)

Event Time Altitude Azimuth Distance (km) Brightness Sun altitude
Exits shadow 14:21:42 39° 172° (S) 1,161 4.1 -22.0°
Maximum altitude 14:23:40 84° 256° (WSW) 798 3.5 -22.3°
Drops below altitude 10° 14:28:54 10° 346° (NNW) 2,359 6.7 -23.3°
Sets 14:31:14 0° 347° (NNW) 3,292 7.6 -23.7°
